Probability
0 0 0 0 0 0 0 0 0 0 0 0 0 0 0 0 0 0 0 2 11 20 21 20 19 20 22 25 25 24 24 25 21 17 14 12 9 7 6 4 2 1 0 0 1 0 0 1 0
0 0 0 0 0 0 0 0 0 0 0 0 0 0 0 0 0 0 0 4 12 20 22 21 22 22 22 24 25 24 23 24 21 16 13 12 11 10 8 6 4 1 0 1 1 1 1 1 1
0 0 0 0 0 0 0 0 0 0 1 1 3 3 3 1 1 1 3 9 17 23 24 25 28 26 24 24 25 24 22 21 18 14 13 13 13 12 10 7 5 2 0 1 1 1 1 1 1
0 0 0 0 0 0 0 0 0 0 2 4 7 9 8 5 4 5 9 16 22 24 25 31 36 34 29 28 28 27 25 22 18 14 13 14 14 13 10 7 5 3 1 0 0 1 1 1 0
0 0 0 0 0 0 0 0 0 0 1 5 10 15 14 10 8 12 16 20 24 26 28 38 46 42 35 32 32 33 31 28 24 20 18 16 16 14 10 7 5 3 2 1 0 0 0 0 0
0 0 0 0 0 0 0 0 1 2 3 6 12 18 20 17 14 17 22 24 27 32 36 43 49 45 36 32 32 34 35 33 31 29 26 22 18 15 12 8 6 5 3 2 1 0 0 0 0
0 0 0 0 0 0 0 1 3 7 9 10 13 20 25 25 23 23 28 30 32 39 44 48 48 42 35 32 32 33 35 34 32 31 29 25 19 15 12 11 9 8 6 3 1 0 1 1 0
0 0 0 0 0 0 0 1 4 10 15 17 18 21 29 36 36 36 38 38 39 43 49 51 49 43 39 37 35 35 34 32 30 29 27 23 19 13 12 13 12 10 8 4 2 2 4 3 2
0 0 0 0 0 0 0 1 5 10 18 24 27 30 38 48 51 48 46 44 43 45 49 52 51 48 45 43 42 41 38 35 32 29 25 21 18 14 12 12 12 10 9 6 4 6 8 7 6
0 0 0 0 0 0 0 1 3 9 17 26 33 39 45 51 53 49 45 42 38 41 46 49 50 49 49 48 48 48 46 42 37 32 27 22 19 18 15 13 12 12 11 9 7 8 9 9 10
0 0 0 0 0 0 0 1 3 7 14 20 27 35 40 43 43 42 41 38 36 37 41 43 46 49 50 52 54 55 52 47 42 38 33 27 22 21 19 16 14 13 11 11 10 9 8 8 10
0 0 0 0 0 0 1 1 3 6 9 14 20 27 32 32 33 36 39 39 38 37 37 38 42 45 48 52 55 54 50 45 42 39 36 32 27 25 22 18 15 12 9 9 8 6 5 6 7
0 0 0 0 1 1 2 2 2 5 10 15 20 25 28 26 26 30 35 38 36 34 35 37 39 40 42 46 47 45 41 37 35 34 33 31 29 25 21 18 15 10 6 5 3 2 2 4 4
0 0 0 0 0 1 3 2 2 5 12 18 21 23 25 25 24 26 30 32 31 30 31 35 36 34 33 34 35 34 34 31 29 28 28 28 25 21 18 17 13 8 5 3 2 1 1 1 1
0 0 0 0 0 0 2 3 3 6 12 18 21 22 24 25 24 25 26 27 27 28 30 32 31 29 28 28 27 28 29 28 26 25 24 23 20 16 15 14 12 8 7 6 5 3 1 0 0
0 0 0 0 0 0 0 1 3 6 10 15 18 20 22 23 23 23 22 22 24 27 30 30 28 27 27 27 25 24 23 21 19 19 18 18 16 13 12 12 11 10 9 9 7 5 3 1 0
0 0 0 0 0 0 0 0 1 4 7 11 14 15 17 18 19 20 19 18 21 24 26 27 27 27 28 26 22 18 15 12 11 11 11 11 12 12 11 11 11 11 11 11 8 6 5 3 1
0 0 0 0 0 0 0 0 1 3 6 9 11 12 13 14 15 17 17 16 17 20 20 21 22 24 26 25 18 12 8 6 5 5 5 7 10 11 10 10 9 9 10 9 7 6 5 3 1
0 0 0 0 0 0 0 0 2 4 6 8 10 11 12 13 14 15 16 14 13 15 16 16 17 20 23 23 17 9 5 4 3 3 3 4 7 9 10 9 8 8 8 6 4 4 3 1 0
0 0 0 0 0 0 0 1 4 6 6 8 9 9 8 10 11 12 13 13 12 14 14 13 13 16 20 21 16 8 4 4 3 2 1 2 5 7 8 8 7 6 6 5 3 2 2 1 0
0 0 0 0 0 0 0 1 3 6 6 7 7 6 5 5 6 8 10 11 12 13 12 10 10 12 16 17 14 8 5 4 2 1 0 1 2 4 6 8 7 5 4 4 3 2 2 1 1
0 0 0 0 0 0 0 0 2 4 5 5 5 4 3 3 3 3 5 7 8 9 10 8 8 10 12 12 11 8 5 4 1 0 0 1 1 1 2 5 5 4 3 4 3 3 3 3 2
0 0 0 0 0 0 0 0 1 2 3 3 3 3 2 1 1 1 2 3 5 6 6 6 6 6 8 8 7 6 5 2 1 0 0 0 0 0 1 2 3 3 3 3 3 3 3 3 3
0 0 0 0 0 0 0 0 0 1 1 2 2 1 1 0 0 0 1 2 3 3 4 4 4 4 4 4 5 5 4 2 0 0 0 0 0 0 0 1 2 3 3 3 3 3 3 3 3
0 0 0 0 0 0 0 0 0 0 0 1 1 1 0 0 0 0 0 1 1 1 2 2 2 2 2 2 3 3 2 1 0 0 0 0 0 0 0 2 3 3 3 3 3 3 3 3 3
0 0 0 0 0 0 0 0 0 0 0 0 0 0 0 0 0 0 0 0 0 0 1 1 1 1 1 1 1 1 0 0 0 0 0 0 0 0 0 1 2 3 3 3 3 3 3 3 3
0 0 0 0 0 0 0 0 0 0 0 0 0 0 0 0 0 0 0 0 0 0 0 0 0 0 0 0 0 0 0 0 0 0 0 0 0 0 0 1 1 1 3 3 3 3 3 2 1
0 0 0 0 0 0 0 0 0 0 0 0 0 0 0 0 0 0 0 0 0 0 0 0 0 0 0 0 0 0 0 0 0 0 0 0 0 0 0 0 0 1 2 3 3 3 3 2 1
0 0 0 0 0 0 0 0 0 0 0 0 0 0 0 0 0 0 0 0 0 0 0 0 0 0 0 0 0 0 0 0 0 0 0 0 0 0 0 0 0 1 2 3 3 3 2 1 1
0 0 0 0 0 0 0 0 0 0 0 0 0 0 0 0 0 0 0 0 0 0 0 0 0 0 0 0 0 0 0 0 0 0 0 0 0 0 0 0 0 0 1 3 3 3 2 1 0
Wind_Speed
3 1 2 4 6 5 3 5 4 4 4 2 2 4 6 6 6 4 2 12 15 15 14 16 18 18 17 17 16 16 16 17 16 16 16 15 15 14 14 13 13 12 12 12 12 12 12 13 13
1 2 4 5 5 0 6 5 4 4 3 4 2 2 3 1 2 5 5 10 16 15 12 14 18 18 18 17 16 16 16 16 16 15 15 15 14 14 13 13 13 12 12 12 12 12 12 12 13
0 3 5 5 4 5 5 4 4 5 4 2 1 2 2 1 2 4 6 14 14 13 11 14 20 19 18 17 16 16 16 16 15 15 15 14 13 12 12 12 12 12 11 12 12 12 12 12 12
3 5 6 5 3 5 5 6 6 6 5 1 2 3 3 4 2 5 12 15 15 12 10 13 19 19 18 17 16 16 16 15 15 14 14 13 12 11 11 12 12 11 11 11 11 11 11 11 11
5 5 5 1 4 5 5 6 5 4 3 2 3 3 3 6 8 12 13 13 14 11 8 10 16 17 17 17 16 15 15 14 13 13 12 11 11 10 10 10 10 11 10 10 11 10 10 10 10
5 5 5 2 5 5 5 4 3 2 1 1 2 3 3 5 7 10 11 10 10 11 9 9 14 16 16 15 15 14 13 12 12 11 11 10 9 9 9 9 9 9 9 10 10 10 9 9 8
5 5 4 3 3 4 4 3 2 2 2 2 2 4 3 5 7 10 10 10 9 9 8 7 8 10 13 13 13 12 11 11 11 11 10 10 10 9 10 9 9 8 8 9 9 9 8 8 7
5 6 3 1 2 4 4 5 2 2 2 2 3 5 3 6 9 10 11 10 9 8 7 6 6 6 6 7 11 11 11 10 10 10 10 10 10 9 9 8 8 8 8 8 8 8 8 7 6
4 6 1 3 3 3 3 4 4 3 4 5 5 4 7 13 12 11 10 8 7 7 5 5 5 5 6 5 8 8 10 10 9 8 9 8 4 4 5 6 8 9 8 8 8 8 7 6 5
5 3 5 4 3 2 3 2 3 4 7 6 7 9 11 12 10 10 9 8 7 6 5 4 5 4 5 5 5 3 4 4 4 3 4 3 2 2 4 5 8 9 9 8 8 8 6 4 2
4 5 4 4 3 2 1 2 3 3 5 3 5 8 9 10 8 8 7 6 5 4 5 4 4 4 4 3 4 2 2 2 3 4 4 3 2 2 2 2 3 4 5 3 4 4 2 2 2
3 4 3 3 1 1 1 1 4 5 3 4 6 9 9 8 6 6 6 6 6 5 4 4 4 4 3 2 2 3 2 1 2 2 3 3 2 2 2 2 2 2 1 2 2 2 3 3 3
2 3 2 2 1 1 4 3 4 4 4 7 9 9 9 7 5 4 4 5 5 4 3 3 3 4 3 3 2 2 2 1 1 2 3 3 3 3 3 2 2 2 2 2 2 2 3 3 3
3 2 2 2 1 1 6 3 4 2 5 8 9 8 7 6 5 4 4 4 4 4 3 3 3 2 3 2 2 2 2 1 1 1 3 3 3 2 3 3 3 3 3 3 3 3 3 2 2
1 2 4 2 1 2 6 6 3 3 6 8 7 8 8 6 6 5 4 3 3 3 3 3 3 3 2 2 2 2 2 2 1 0 1 2 3 3 3 3 3 3 3 3 3 3 3 3 3
3 4 3 4 2 1 6 3 1 3 7 7 7 7 7 7 7 6 5 4 4 4 3 3 3 3 3 3 3 2 2 2 1 1 0 1 2 3 3 3 3 2 2 2 3 3 2 2 2
6 3 2 5 3 2 5 4 2 4 6 7 6 6 6 7 7 7 6 5 4 4 4 4 3 3 2 2 2 3 2 2 1 1 1 1 1 1 2 2 2 3 3 2 3 3 3 3 3
1 1 2 3 2 4 5 5 4 4 6 6 6 6 6 6 6 5 6 6 5 5 4 4 4 3 2 2 2 2 2 2 2 1 1 1 0 0 1 1 1 2 3 3 3 3 3 3 3
2 0 3 3 1 4 5 6 4 4 5 5 5 5 5 5 5 6 6 6 6 6 5 4 4 3 2 1 1 1 1 1 1 1 1 1 0 0 1 1 1 1 2 3 4 3 4 2 3
2 1 2 2 3 4 6 5 3 3 4 4 4 4 4 4 6 7 8 7 7 6 6 5 4 3 2 1 0 1 2 1 1 1 2 2 2 1 1 1 1 1 1 2 3 3 3 2 3
2 4 4 3 3 5 6 2 2 2 3 4 4 4 4 4 5 6 7 7 7 7 6 5 4 4 4 3 2 2 2 1 2 2 2 3 3 3 2 1 1 1 1 2 3 4 4 4 3
3 5 5 4 3 1 2 2 3 3 3 4 3 3 3 4 5 5 7 7 8 7 6 6 6 5 4 4 3 3 2 2 2 2 2 4 5 4 3 1 1 1 1 1 2 3 3 5 4
4 2 4 3 4 2 1 2 4 3 4 6 5 3 3 4 5 5 6 6 7 7 7 6 7 7 6 5 4 3 3 2 2 2 4 4 4 4 4 2 2 2 1 1 1 1 2 3 4
5 7 6 5 5 1 1 3 4 4 5 6 6 5 4 4 5 5 5 5 6 7 7 7 7 7 7 6 5 4 4 3 3 4 3 3 3 3 4 4 3 3 2 2 1 1 2 2 2
5 6 4 5 4 4 1 2 6 2 2 6 8 7 6 5 4 4 5 6 6 7 7 7 7 7 7 7 6 6 5 5 4 3 3 3 3 3 4 4 3 3 3 3 2 2 1 1 2
3 7 7 4 4 4 2 3 4 0 1 5 7 8 7 5 4 4 4 5 5 6 6 7 7 7 7 7 6 6 6 4 3 3 3 3 3 3 3 4 4 4 4 4 3 3 3 2 2
5 3 5 7 2 1 4 4 3 3 4 7 8 8 7 6 5 5 4 5 5 5 6 6 6 7 7 7 6 6 5 4 4 4 4 3 3 3 5 5 5 5 5 5 4 4 4 4 3
4 7 5 5 4 2 4 4 4 6 7 8 8 8 7 6 5 5 4 4 5 5 5 6 6 7 6 7 6 5 5 5 4 4 5 5 5 4 5 6 6 6 6 6 5 5 5 6 5
3 4 5 4 4 5 3 7 4 6 9 10 9 8 8 7 6 4 3 4 4 5 5 6 6 6 6 6 6 6 6 5 5 5 5 5 5 5 5 5 6 6 6 6 6 6 6 7 6
3 5 6 4 3 4 3 8 2 2 6 9 9 9 8 8 6 5 4 4 4 5 5 5 5 6 5 5 6 6 6 6 6 6 5 5 6 5 6 6 6 7 7 6 7 7 7 7 7
Wind_Direction
318 37 92 64 56 51 259 254 249 290 302 298 178 164 164 164 173 201 100 131 129 137 144 146 145 142 138 134 129 126 124 123 123 125 128 131 134 135 136 137 136 135 134 133 132 131 128 127 128
321 97 63 63 91 154 266 251 252 254 280 325 348 101 122 128 92 109 116 132 132 136 141 145 146 143 140 137 133 132 130 129 129 130 132 134 135 136 137 138 138 136 135 135 135 134 132 132 133
97 64 85 80 128 190 241 249 255 282 285 299 352 45 86 73 108 135 133 132 129 133 139 148 147 145 142 140 137 136 135 135 135 135 136 136 137 136 138 140 140 139 138 138 138 136 136 136 138
88 55 58 82 217 227 234 264 281 303 320 327 102 61 44 20 99 122 125 130 128 131 137 150 148 146 144 143 141 140 140 140 141 141 140 140 140 140 141 143 143 143 143 143 142 141 140 141 143
62 80 73 37 263 258 250 264 273 291 303 351 70 87 28 20 78 109 121 127 130 130 133 145 146 145 146 147 146 145 145 144 144 145 144 144 144 144 146 147 147 149 150 150 147 146 145 145 147
61 71 94 230 272 279 272 270 298 294 276 357 96 104 53 50 85 108 112 113 122 128 129 137 144 147 149 149 150 149 149 148 147 147 148 149 150 152 153 153 154 155 156 155 154 151 151 150 151
104 102 148 198 273 296 286 323 331 322 11 9 113 108 90 77 87 101 102 103 108 117 122 127 138 147 151 153 153 153 151 152 152 152 154 157 160 162 164 162 162 162 162 162 161 160 159 157 156
120 105 121 221 243 279 304 338 344 22 358 5 65 119 134 119 107 99 96 98 103 107 115 120 124 130 138 150 159 158 157 157 159 161 164 167 169 172 175 169 170 171 173 173 171 170 169 165 163
86 78 162 221 212 266 322 357 350 14 59 48 45 69 111 120 112 106 103 100 109 117 114 123 124 128 135 143 159 161 167 167 167 171 176 173 171 173 180 182 182 184 184 184 181 179 176 173 169
87 125 223 223 207 226 329 357 344 41 46 52 63 69 103 114 117 119 122 127 131 136 134 126 131 145 144 154 147 143 160 159 158 163 173 163 156 172 176 186 193 194 194 195 191 189 183 168 142
144 187 232 247 219 205 311 358 17 88 58 64 107 113 111 110 113 121 126 123 125 130 143 149 146 146 148 144 136 138 140 145 153 167 170 159 157 167 165 164 196 198 196 192 191 185 162 149 148
175 238 228 263 192 153 158 81 49 57 91 87 101 114 115 115 118 125 130 129 128 133 152 144 137 138 138 125 134 140 138 155 166 170 167 167 174 180 172 175 189 181 173 166 163 163 156 153 158
208 267 253 239 357 116 93 85 92 66 72 83 92 97 108 115 108 99 108 116 119 123 129 134 131 146 150 134 130 132 130 151 161 168 179 178 185 194 189 192 189 183 175 172 169 172 163 157 160
227 241 283 291 135 128 112 83 91 90 87 86 90 94 95 92 88 83 83 85 102 114 122 129 132 137 133 132 132 129 131 125 148 189 191 181 181 192 199 204 197 190 186 184 174 172 164 164 160
286 348 352 358 75 149 111 54 68 122 98 88 83 83 81 68 64 62 61 61 71 98 99 101 116 92 97 103 110 114 109 106 114 137 170 164 169 176 185 202 202 198 185 175 163 157 151 160 162
45 46 5 320 19 82 105 110 66 88 102 92 84 78 70 63 60 54 51 54 51 63 70 75 99 103 111 117 122 110 96 100 99 85 96 161 169 174 177 187 195 188 174 165 161 153 155 159 155
33 44 342 323 3 70 103 137 108 76 101 98 90 84 74 60 49 41 41 51 58 63 65 61 61 84 97 109 117 118 110 103 99 86 52 319 212 171 176 194 187 181 179 178 180 161 161 159 149
8 14 333 310 334 76 98 119 105 82 96 98 92 87 76 61 41 34 40 47 56 62 67 64 50 55 66 82 83 76 71 59 69 79 74 56 69 190 178 183 186 188 184 182 174 168 160 155 146
145 184 287 285 294 93 110 119 115 99 98 100 96 90 78 59 38 37 41 44 47 47 51 55 46 30 44 58 92 93 87 65 66 73 63 57 95 122 148 155 165 184 197 187 171 164 152 145 133
169 237 281 343 48 104 113 109 110 100 118 126 116 100 85 62 43 35 33 36 40 40 34 40 39 32 37 50 114 100 98 81 75 50 40 25 26 39 74 105 146 153 173 182 178 164 154 155 163
207 194 208 179 67 73 111 93 133 103 99 105 99 95 82 76 56 38 33 32 35 35 28 26 26 30 31 43 71 76 69 55 46 37 31 17 16 26 27 45 126 135 163 184 191 182 171 174 183
246 219 183 161 131 188 147 196 225 179 163 155 135 105 87 77 66 46 34 28 28 27 25 28 30 32 33 45 65 73 76 66 35 26 25 21 20 18 21 21 56 99 160 174 188 180 177 174 178
206 99 119 117 127 94 40 146 265 173 204 196 169 148 114 85 72 57 41 30 25 26 25 24 32 35 30 39 61 76 73 62 44 37 39 29 15 15 13 23 39 48 47 96 111 133 157 176 178
125 72 59 54 72 80 228 164 251 211 213 183 168 156 131 100 80 65 46 39 30 27 25 26 33 32 30 35 43 57 71 67 57 40 35 25 14 12 16 29 41 48 44 47 67 109 149 168 169
86 86 36 3 10 256 269 193 245 237 212 173 167 154 135 116 97 74 53 41 31 28 27 30 34 30 27 34 38 42 51 52 52 39 38 33 21 11 10 30 40 44 47 50 56 68 73 123 153
146 136 154 196 223 272 320 242 255 112 93 131 135 132 125 111 97 81 62 48 37 32 31 33 32 28 26 32 36 45 45 41 35 34 37 40 30 15 18 38 47 50 50 53 57 65 59 64 74
128 132 155 131 143 287 283 281 290 134 122 130 134 134 129 117 103 88 69 52 42 36 34 35 37 33 27 26 33 41 45 47 41 39 42 36 26 28 35 44 48 51 54 56 62 63 58 65 62
118 139 101 114 143 257 290 272 245 202 187 168 160 152 138 124 109 94 77 60 45 37 37 41 44 41 32 29 34 40 39 44 46 49 50 46 35 34 44 47 48 50 54 58 62 62 53 62 54
104 90 99 109 146 160 254 270 234 206 185 178 170 154 143 134 121 106 90 72 58 45 43 43 41 39 35 34 36 37 35 41 53 55 52 54 48 41 46 49 52 53 53 57 63 60 58 64 59
151 159 148 150 203 173 187 265 317 196 164 157 152 144 137 128 119 111 101 83 66 51 46 46 43 41 35 36 42 41 37 43 52 51 48 55 56 48 48 51 53 54 53 54 62 63 58 60 58